Location: Miles
(41.4492°N, 81.6087°W)
Time: 21:05:46
(UTC+00:00)

Courier 1B - Pass Details

Date: 19 September 2024
Orbit: 962 x 1208 km, 28.3° (Epoch: 04 October)

Event Time Altitude Azimuth Distance (km) Brightness Sun altitude
Rises 22:24:29 0° 257° (WSW) 3,941 12.9 11.0°
Reaches altitude 10° 22:28:15 10° 239° (WSW) 3,026 11.6 10.3°
Maximum altitude 22:32:55 18° 200° (SSW) 2,535 10.1 9.4°
Drops below altitude 10° 22:37:42 10° 162° (SSE) 3,107 10.0 8.6°
Sets 22:41:40 0° 144° (SE) 4,090 10.4 7.8°
